Date String (YYYY-MM-DD hh:mm:ss) UTC,Instrument flags,Ambient pressure (hPa),Sample flow (lpm),Bypass flow (lpm),Sample temperature (°C),Ambient temperature (°C),ASC tube jacket temperature (°C),LED temperature (°C),Box temperature (°C),Sample RH (%),Span deviation,Mass concentration (μg/m³),Mass concentration (μg/m³),Mass concentration (μg/m³)
DateTimeUTC,F1_M11,P_M11,Q1_M11,Q2_M11,T1_M11,T2_M11,T3_M11,T4_M11,T5_M11,U1_M11,ZSPAN_M11,X0_M11,X2_M11,X1_M11
2022-05-19 11:00:00,,0817.5,5.00,0.00,30.0,28.8,00.0,38.9,31.8,09.0,0000.0,0009.82,0003.57,0002.04
2022-05-19 11:01:00,,0817.4,5.00,0.00,30.0,28.8,00.0,38.9,31.8,08.7,0000.0,0010.26,0003.56,0002.01
2022-05-19 11:02:00,,0817.5,5.00,0.00,30.0,28.8,00.0,38.9,31.7,08.6,0000.0,0010.25,0003.61,0002.01
2022-05-19 11:03:00,,0817.5,5.01,0.00,30.0,28.8,00.0,38.9,31.7,08.2,0000.0,0009.67,0003.62,0002.01
2022-05-19 11:04:00,,0817.7,5.00,0.00,30.0,28.7,00.0,38.9,31.7,08.3,0000.0,0009.60,0003.57,0001.97
2022-05-19 11:05:00,,0817.7,4.99,0.00,30.0,28.7,00.0,38.9,31.7,08.9,0000.0,0009.65,0003.57,0001.96
2022-05-19 11:06:00,,0817.6,5.01,0.00,30.0,28.7,00.0,38.9,31.8,08.6,0000.0,0009.99,0003.57,0001.96
2022-05-19 11:07:00,,0817.6,5.00,0.00,30.0,28.7,00.0,38.9,31.7,08.5,0000.0,0009.80,0003.50,0001.92
2022-05-19 11:08:00,,0817.6,5.00,0.00,30.0,28.7,00.0,38.9,31.8,08.6,0000.0,0009.89,0003.47,0001.86
2022-05-19 11:09:00,,0817.6,4.99,0.00,30.0,28.7,00.0,38.9,31.8,08.6,0000.0,0010.66,0003.42,0001.82
2022-05-19 11:10:00,,0817.6,5.00,0.00,30.0,28.7,00.0,38.9,31.7,08.6,0000.0,0010.47,0003.35,0001.78
2022-05-19 11:11:00,,0817.6,5.01,0.00,30.0,28.7,00.0,38.9,31.8,08.6,0000.0,0010.15,0003.29,0001.76
2022-05-19 11:12:00,,0817.7,5.00,0.00,30.0,28.7,00.0,38.9,31.8,08.6,0000.0,0009.79,0003.26,0001.76
2022-05-19 11:13:00,,0817.8,4.99,0.00,30.0,28.7,00.0,38.9,31.8,08.7,0000.0,0009.62,0003.25,0001.77
2022-05-19 11:14:00,,0817.7,5.00,0.00,30.0,28.7,00.0,38.9,31.8,08.8,0000.0,0009.73,0003.23,0001.77
2022-05-19 11:15:00,,0817.6,5.00,0.00,30.0,28.7,00.0,38.9,31.7,08.8,0000.0,0010.14,0003.22,0001.78
2022-05-19 11:16:00,,0817.7,4.99,0.00,30.0,28.7,00.0,38.9,31.7,08.9,0000.0,0010.22,0003.24,0001.79
2022-05-19 11:17:00,,0817.7,5.01,0.00,30.0,28.7,00.0,38.9,31.8,08.8,0000.0,0009.78,0003.23,0001.79
2022-05-19 11:18:00,,0817.7,5.00,0.00,30.0,28.7,00.0,38.9,31.7,08.8,0000.0,0009.30,0003.25,0001.79
2022-05-19 11:19:00,,0817.8,4.99,0.00,30.0,28.7,00.0,38.9,31.8,08.8,0000.0,0009.25,0003.25,0001.78
2022-05-19 11:20:00,,0817.6,4.99,0.00,30.0,28.7,00.0,38.9,31.8,08.8,0000.0,0008.46,0003.24,0001.78
2022-05-19 11:21:00,,0817.7,5.00,0.00,30.0,28.7,00.0,38.9,31.7,08.7,0000.0,0008.06,0003.27,0001.77
2022-05-19 11:22:00,,0817.6,5.01,0.00,30.0,28.7,00.0,38.9,31.7,08.8,0000.0,0008.12,0003.29,0001.78
2022-05-19 11:23:00,,0817.6,4.99,0.00,30.0,28.7,00.0,38.9,31.7,08.8,0000.0,0008.21,0003.32,0001.80
2022-05-19 11:24:00,,0817.6,5.01,0.00,30.0,28.7,00.0,38.9,31.8,08.7,0000.0,0008.34,0003.31,0001.79
2022-05-19 11:25:00,,0817.5,5.00,0.00,30.0,28.7,00.0,38.9,31.8,08.8,0000.0,0008.31,0003.33,0001.78
2022-05-19 11:26:00,,0817.5,4.99,0.00,30.0,28.7,00.0,38.9,31.7,08.9,0000.0,0007.70,0003.34,0001.78
2022-05-19 11:27:00,,0817.5,5.01,0.00,30.0,28.7,00.0,38.9,31.7,08.9,0000.0,0008.10,0003.36,0001.78
2022-05-19 11:28:00,,0817.5,5.01,0.00,30.0,28.7,00.0,38.9,31.8,08.8,0000.0,0008.11,0003.38,0001.77
2022-05-19 11:29:00,,0817.5,5.01,0.00,30.0,28.7,00.0,38.9,31.8,08.4,0000.0,0008.00,0003.34,0001.74
2022-05-19 11:30:00,,0817.5,4.99,0.00,30.0,28.7,00.0,38.9,31.8,08.7,0000.0,0007.99,0003.33,0001.72
2022-05-19 11:31:00,,0817.5,4.99,0.00,30.0,28.7,00.0,38.9,31.7,08.7,0000.0,0008.09,0003.31,0001.71
2022-05-19 11:32:00,,0817.5,5.01,0.00,30.0,28.7,00.0,38.9,31.7,08.6,0000.0,0008.17,0003.31,0001.72
2022-05-19 11:33:00,,0817.5,5.00,0.00,30.0,28.7,00.0,38.9,31.7,08.5,0000.0,0008.30,0003.28,0001.71
2022-05-19 11:34:00,,0817.4,4.99,0.00,30.0,28.8,00.0,38.9,31.7,08.7,0000.0,0008.38,0003.28,0001.70
2022-05-19 11:35:00,,0817.5,4.99,0.00,30.0,28.8,00.0,38.9,31.7,08.6,0000.0,0008.26,0003.30,0001.70
2022-05-19 11:36:00,,0817.4,5.01,0.00,30.0,28.8,00.0,38.9,31.7,08.6,0000.0,0008.32,0003.30,0001.70
2022-05-19 11:37:00,,0817.5,5.00,0.00,30.0,28.8,00.0,38.9,31.8,08.6,0000.0,0008.45,0003.30,0001.70
2022-05-19 11:38:00,,0817.5,5.00,0.00,30.0,28.8,00.0,38.9,31.8,08.6,0000.0,0008.06,0003.29,0001.68
2022-05-19 11:39:00,,0817.5,5.00,0.00,30.0,28.8,00.0,38.9,31.8,08.7,0000.0,0008.00,0003.27,0001.68
2022-05-19 11:40:00,,0817.5,5.00,0.00,30.0,28.8,00.0,38.9,31.8,08.7,0000.0,0008.07,0003.27,0001.68
2022-05-19 11:41:00,,0817.5,5.00,0.00,30.0,28.8,00.0,38.9,31.7,08.9,0000.0,0008.07,0003.27,0001.69
2022-05-19 11:42:00,,0817.5,5.00,0.00,30.0,28.8,00.0,38.9,31.8,08.9,0000.0,0007.85,0003.23,0001.68
2022-05-19 11:43:00,,0817.4,5.00,0.00,30.0,28.8,00.0,38.9,31.8,08.9,0000.0,0007.97,0003.21,0001.67
2022-05-19 11:44:00,,0817.4,5.01,0.00,30.0,28.8,00.0,38.9,31.8,08.7,0000.0,0008.59,0003.25,0001.67
2022-05-19 11:45:00,,0817.4,5.01,0.00,30.0,28.8,00.0,38.9,31.8,08.8,0000.0,0009.16,0003.27,0001.66
2022-05-19 11:46:00,,0817.3,4.99,0.00,30.0,28.8,00.0,38.9,31.8,08.8,0000.0,0009.03,0003.23,0001.66
2022-05-19 11:47:00,,0817.3,4.99,0.00,30.0,28.8,00.0,38.9,31.8,08.9,0000.0,0009.02,0003.17,0001.65
2022-05-19 11:48:00,,0817.2,5.00,0.00,30.0,28.8,00.0,38.9,31.8,08.9,0000.0,0009.40,0003.15,0001.66
2022-05-19 11:49:00,,0817.1,5.00,0.00,30.0,28.8,00.0,38.9,31.8,08.9,0000.0,0009.40,0003.16,0001.67
2022-05-19 11:50:00,,0817.1,5.00,0.00,30.0,28.8,00.0,38.9,31.8,08.8,0000.0,0009.34,0003.14,0001.67
2022-05-19 11:51:00,,0817.2,5.00,0.00,30.0,28.8,00.0,38.9,31.8,08.6,0000.0,0009.26,0003.13,0001.68
2022-05-19 11:52:00,,0817.2,5.00,0.00,30.0,28.8,00.0,38.9,31.8,08.7,0000.0,0009.26,0003.13,0001.69
2022-05-19 11:53:00,,0817.2,5.00,0.00,30.0,28.8,00.0,38.9,31.8,08.7,0000.0,0009.28,0003.15,0001.70
2022-05-19 11:54:00,,0817.2,4.99,0.00,30.0,28.8,00.0,38.9,31.8,08.8,0000.0,0008.91,0003.17,0001.71
2022-05-19 11:55:00,,0817.2,5.00,0.00,30.0,28.8,00.0,38.9,31.8,09.0,0000.0,0008.11,0003.19,0001.72
2022-05-19 11:56:00,,0817.1,5.01,0.00,30.0,28.8,00.0,38.9,31.8,09.0,0000.0,0007.63,0003.18,0001.74
2022-05-19 11:57:00,,0817.1,5.01,0.00,30.0,28.8,00.0,38.9,31.8,08.9,0000.0,0008.10,0003.22,0001.74
2022-05-19 11:58:00,,0817.1,4.98,0.00,30.0,28.8,00.0,38.9,31.8,08.9,0000.0,0007.99,0003.26,0001.73
2022-05-19 11:59:00,,0817.1,5.00,0.00,30.0,28.8,00.0,38.9,31.8,08.9,0000.0,0007.59,0003.30,0001.73
